This is the latest recevied weather packets stored in our database for station/object N3LF. If no packets are shown the sender has not sent any weather packets the latest 10 day(s).
| Time | Temp. | Humidity | Pressure | Rain* | Wind** | Luminosity | Snow |
|---|---|---|---|---|---|---|---|
| 1777866360 | 12.22° C | 70% | 1016.9 hPa | 0 mm | - | 0 W/m² | - |
| 1777866057 | 12.22° C | 71% | 1016.8 hPa | 0 mm | - | 0 W/m² | - |
| 1777865755 | 11.11° C | 74% | 1016.8 hPa | 0 mm | - | 0 W/m² | - |
| 1777865452 | 11.11° C | 76% | 1016.8 hPa | 0 mm | - | 0 W/m² | - |
| 1777865149 | 11.11° C | 79% | 1016.9 hPa | 0 mm | - | 0 W/m² | - |
| 1777864846 | 10.56° C | 78% | 1017.1 hPa | 0 mm | - | 0 W/m² | - |
| 1777864543 | 10.56° C | 82% | 1017.3 hPa | 0 mm | - | 0 W/m² | - |
| 1777864239 | 10.56° C | 84% | 1017.3 hPa | 0 mm | - | 0 W/m² | - |
| 1777863936 | 10.56° C | 83% | 1017.5 hPa | 0 mm | - | 0 W/m² | - |
| 1777863632 | 10.56° C | 82% | 1017.4 hPa | 0 mm | - | 0 W/m² | - |
| 1777863330 | 10.56° C | 82% | 1017.5 hPa | 0 mm | - | 0 W/m² | - |
| 1777863026 | 11.11° C | 80% | 1017.5 hPa | 0 mm | - | 0 W/m² | - |
| 1777862723 | 11.11° C | 78% | 1017.6 hPa | 0 mm | - | 0 W/m² | - |
| 1777862420 | 11.11° C | 78% | 1017.6 hPa | 0 mm | - | 0 W/m² | - |
| 1777862117 | 11.11° C | 80% | 1017.7 hPa | 0 mm | - | 0 W/m² | - |
| 1777861813 | 11.67° C | 78% | 1017.5 hPa | 0 mm | - | 0 W/m² | - |
| 1777861508 | 11.67° C | 77% | 1017.4 hPa | 0 mm | - | 0 W/m² | - |
| 1777861205 | 11.67° C | 74% | 1017.6 hPa | 0 mm | - | 0 W/m² | - |
| 1777860903 | 11.67° C | 74% | 1017.7 hPa | 0 mm | - | 0 W/m² | - |
| 1777860600 | 12.22° C | 73% | 1017.6 hPa | 0 mm | - | 0 W/m² | - |
| 1777860296 | 12.22° C | 72% | 1017.5 hPa | 0 mm | - | 0 W/m² | - |
| 1777859993 | 12.78° C | 73% | 1017.3 hPa | 0 mm | - | 0 W/m² | - |
| 1777859689 | 12.78° C | 68% | 1017.6 hPa | 0 mm | - | 0 W/m² | - |
| 1777859385 | 12.78° C | 69% | 1017.8 hPa | 0 mm | - | 0 W/m² | - |
| 1777859081 | 13.33° C | 67% | 1017.8 hPa | 0 mm | - | 0 W/m² | - |
* Rain latest hour (hover to see other rain measurements)
** Current wind speed in m/s (hover to see current wind gust speed)